GSAT0220 (PRN E13)

Last updated on Fri Apr 12 2024 01:03:08 GMT+0100 (British Summer Time)

1 43567U 18060D 24101.38370121 -.00000104 00000+0 00000+0 0 9997 2 43567 57.3049 3.2975 0004088 312.0741 47.9219 1.70475151 35572
UTC large
Height (km)
Speed (km/s)
/
Latitude / Longitude
Inclination (degrees)
Orbital Period (minutes)
Azimuth
Elevation
Range (km)
Doppler Factor

Next 0 passes for location: London (51.5072 / 0.1276)

Sorry there are no passes over London.